Tracking 30922 objects as of 2-Jul-2025
HD Live streaming from Space Station
objects crossing your sky now

STARLINK-3634

Track STARLINK-3634 now!
10-day predictions
STARLINK-3634 is classified as:


NORAD ID: 51798
Int'l Code: 2022-017AG
Perigee: 546.0 km
Apogee: 547.8 km
Inclination: 53.2 °
Period: 95.4 minutes
Semi major axis: 6917 km
RCS: Unknown
Launch date: February 25, 2022
Source: United States (US)
Launch site: AIR FORCE WESTERN TEST RANGE (AFWTR)
Your satellite tracking list
Your tracking list is empty




NASA's NSSDC Master Catalog

Two Line Element Set (TLE):
1 51798U 22017AG  25182.82766011 -.00000507  00000-0 -13773-4 0  9990
2 51798  53.2189  35.2823 0001353  88.1931 271.9216 15.08834940186099
Source of the keplerian elements: AFSPC